Probability
20 21 20 17 15 16 17 13 9 8 7 5 3 2 2 2 1 1 4 5 4 2 1 1 1 1 1 0 0 0 0 0 0 0 0 0 0 0 0 0 0 0 0
24 24 24 19 15 15 15 11 7 6 5 3 1 1 1 1 1 2 4 5 4 2 2 2 2 2 2 1 0 0 0 0 0 0 0 0 0 0 0 0 0 0 0
27 26 25 22 17 14 12 8 4 4 3 2 0 0 0 0 0 2 4 5 4 3 2 2 2 2 1 1 0 0 0 0 0 0 0 0 0 0 0 0 0 0 0
28 25 24 24 20 15 11 6 3 3 3 3 1 0 0 0 0 1 4 5 5 4 3 3 2 1 1 1 0 0 1 1 0 0 0 0 0 0 0 0 0 0 0
28 26 25 25 23 17 12 7 3 3 4 4 3 1 0 0 0 1 3 5 5 4 3 3 2 1 1 1 1 1 2 2 1 0 0 0 0 0 0 0 0 0 0
29 27 26 27 26 19 13 8 5 4 4 4 4 3 2 2 1 1 3 5 6 4 3 3 2 1 1 1 1 2 2 2 1 0 0 0 0 0 0 0 0 0 0
29 27 26 27 27 21 15 11 8 7 5 4 5 6 5 4 3 3 3 5 6 4 2 2 2 2 1 1 1 2 1 1 0 0 0 0 0 0 0 1 0 0 0
30 28 27 27 26 23 18 15 12 9 7 6 6 7 7 6 5 4 4 6 6 4 2 2 2 2 1 1 1 1 0 0 0 0 0 0 0 0 0 0 0 0 0
33 31 27 25 23 21 18 16 13 10 8 8 8 6 6 5 5 4 4 5 5 4 2 2 2 1 0 0 0 0 0 0 0 0 0 0 0 0 0 0 0 0 0
34 31 26 22 20 19 18 16 13 10 10 10 9 5 3 3 2 3 3 4 4 3 1 1 1 0 0 0 0 0 0 0 0 0 0 0 0 0 0 0 0 0 0
33 30 25 21 19 19 18 16 12 10 9 9 6 3 1 1 1 2 2 3 2 1 0 0 0 0 0 0 0 0 0 0 0 0 0 0 0 0 0 0 0 0 0
31 28 25 23 21 21 19 15 12 10 9 8 5 2 0 0 0 1 1 1 1 0 0 0 0 0 0 0 0 0 0 0 0 0 0 0 0 0 0 0 0 0 0
29 27 25 24 24 23 21 16 12 11 10 9 6 3 1 0 0 0 0 0 0 0 0 0 0 0 0 0 0 0 0 0 0 0 0 0 0 0 0 0 0 0 0
29 29 28 28 27 25 21 16 13 11 12 11 9 5 3 1 0 0 0 0 0 0 0 0 0 0 0 0 0 0 0 0 0 0 0 0 0 0 0 0 0 0 0
29 30 32 32 30 26 20 15 12 12 13 13 10 7 4 2 1 1 0 0 0 0 0 0 0 0 0 0 0 0 0 0 0 0 0 0 0 1 2 1 0 0 0
27 29 32 34 32 27 21 15 13 14 14 13 9 6 4 3 3 2 1 0 0 0 0 0 0 0 0 0 0 0 0 0 0 0 0 0 0 1 3 2 1 0 0
26 28 29 30 29 26 21 16 13 14 14 11 7 4 3 3 3 3 2 1 0 0 0 0 0 0 0 0 0 0 0 0 0 0 0 0 0 0 1 2 1 0 0
27 27 27 25 24 22 19 14 11 12 11 9 6 4 3 3 3 3 2 1 0 0 0 0 0 0 0 0 0 0 0 0 0 0 0 0 0 0 0 0 0 0 0
28 27 25 23 21 19 16 11 9 9 8 7 5 4 4 3 3 3 1 0 0 0 0 0 0 0 0 0 0 0 0 0 0 0 0 0 0 0 0 0 0 0 0
26 25 23 22 19 17 14 10 7 6 6 5 4 3 3 3 3 2 1 0 0 0 0 0 0 0 0 0 0 0 0 0 0 0 0 0 0 0 0 0 0 0 0
22 21 20 20 18 16 13 10 7 5 4 3 2 2 2 3 3 2 1 0 0 0 0 0 0 0 0 0 0 0 0 0 0 0 0 0 0 0 0 0 0 0 0
18 18 18 18 17 16 14 11 7 5 3 1 1 0 1 2 3 3 1 0 0 0 0 0 0 0 0 0 0 0 0 0 0 0 0 0 0 0 0 0 0 0 0
12 13 15 15 15 15 14 12 9 6 3 1 0 0 0 1 2 3 2 1 0 0 0 0 0 0 0 0 0 0 0 0 0 0 0 0 0 0 0 0 0 0 0
7 9 11 12 12 12 12 12 10 7 4 2 1 0 0 0 1 2 2 1 0 0 0 0 0 0 0 0 0 0 0 0 0 0 0 0 0 0 0 0 0 0 0
6 7 9 10 10 9 9 10 10 8 6 3 1 0 0 0 0 1 1 0 0 0 0 0 0 0 0 0 0 0 0 0 0 0 0 0 0 0 0 0 0 0 0
6 7 8 9 9 8 7 8 9 9 7 4 1 0 0 0 0 0 0 0 0 0 0 0 0 0 0 0 0 0 0 0 0 0 0 0 0 0 0 0 0 0 0
Wind_Speed
8 10 12 12 12 12 13 13 13 13 13 13 13 14 14 14 14 14 14 14 15 15 15 15 15 15 15 15 15 15 14 14 14 15 15 15 15 15 15 14 13 9 14
12 12 13 12 12 12 12 13 13 13 13 13 13 13 13 13 13 14 14 14 14 15 15 15 15 15 15 15 14 14 13 13 13 12 13 13 14 15 15 14 13 9 14
14 13 13 12 12 12 12 13 13 13 12 12 12 12 13 13 13 13 13 14 14 14 14 14 14 14 14 14 13 12 12 11 10 10 11 6 8 14 14 14 13 13 13
13 12 12 12 13 12 12 12 13 13 13 12 12 12 12 12 12 13 13 13 14 14 13 13 13 13 13 13 12 11 10 10 10 11 7 6 7 13 14 14 13 13 13
11 11 12 13 13 13 12 12 13 13 13 12 12 12 12 12 12 13 13 13 13 13 13 13 13 12 12 12 11 10 10 10 10 9 6 6 5 12 13 13 13 13 12
11 11 12 13 14 13 13 12 12 13 13 12 12 12 12 12 13 12 13 13 12 12 12 12 12 12 12 11 10 10 9 10 9 6 6 6 5 11 13 13 12 12 12
11 11 12 13 14 13 13 12 12 13 13 13 12 12 12 12 12 12 12 12 12 12 12 12 12 11 11 10 9 9 9 8 6 6 6 5 7 12 12 12 12 12 12
11 11 11 12 13 13 13 12 11 12 12 12 12 12 12 12 12 12 11 11 11 11 11 11 11 10 10 9 8 8 8 7 7 7 6 5 9 12 12 12 11 12 12
11 11 9 9 10 12 12 12 11 12 12 12 12 11 11 12 12 12 11 10 10 10 10 10 10 10 9 8 7 7 7 8 5 4 6 4 9 11 11 11 11 11 11
9 9 9 9 8 8 8 11 11 12 12 12 11 10 10 10 11 11 10 10 9 9 10 10 9 9 7 6 5 5 6 5 4 5 3 5 10 10 10 11 11 11 11
8 8 8 8 8 8 7 10 10 11 11 11 9 9 8 5 6 6 8 9 9 9 9 9 8 7 5 3 2 4 4 2 4 4 3 7 9 9 10 10 10 10 10
8 7 7 8 8 7 7 6 5 6 6 5 5 5 3 4 4 6 7 8 9 8 7 6 6 4 3 1 1 2 2 3 3 3 4 8 8 9 9 9 9 10 10
8 7 7 7 7 7 5 4 3 3 4 4 5 4 4 4 4 4 3 4 4 4 2 2 2 1 2 1 1 2 2 3 2 3 4 7 7 8 8 9 9 9 9
8 7 7 7 6 6 5 4 4 3 3 3 3 4 4 3 3 3 2 2 2 2 1 1 1 2 2 2 2 2 2 2 3 2 3 6 6 7 8 8 9 9 10
8 7 7 7 7 5 5 3 4 3 3 3 3 3 4 3 3 3 2 2 2 2 1 1 2 2 2 2 2 3 2 3 3 3 2 5 6 6 7 8 8 9 10
7 7 7 7 6 6 4 3 4 4 3 4 3 4 4 3 3 3 3 2 2 2 1 1 2 2 2 2 2 2 2 2 3 3 2 3 5 6 6 7 8 9 10
8 7 7 6 6 6 5 4 3 4 4 3 3 4 4 4 4 4 3 2 2 2 2 2 2 2 2 2 2 2 2 2 2 2 2 1 1 4 6 6 7 8 9
7 8 7 6 6 6 5 4 3 4 4 3 3 3 4 4 4 4 3 3 2 2 2 2 2 1 1 1 1 1 1 1 1 1 1 1 1 1 3 5 7 8 9
7 7 7 7 6 5 5 3 4 4 4 3 3 3 3 4 4 4 3 3 3 2 2 2 2 1 1 1 1 0 0 0 0 1 1 1 1 1 0 3 5 7 9
6 7 7 6 6 5 4 4 4 4 3 3 3 3 4 3 4 4 3 3 3 2 2 2 2 2 1 1 1 1 1 1 1 1 0 0 0 1 1 1 1 4 7
5 6 7 6 6 5 4 4 4 3 3 3 3 4 4 3 4 3 3 3 3 2 2 2 2 2 1 1 1 1 1 1 1 1 0 0 1 1 1 1 1 1 2
4 6 6 6 6 5 4 3 3 3 3 3 3 3 3 3 3 3 3 3 2 2 2 2 2 1 1 1 1 0 2 2 2 1 1 1 1 1 1 2 2 2 2
3 4 4 5 5 5 6 4 4 3 3 2 3 2 2 3 3 3 3 3 3 3 2 2 2 2 1 0 1 1 1 1 2 2 2 1 1 1 2 2 2 2 2
4 3 4 4 5 5 6 6 7 5 4 3 3 3 3 3 3 3 3 3 3 2 2 2 1 1 2 1 0 0 1 1 0 3 3 2 2 2 2 3 2 2 2
4 3 3 4 4 4 5 6 6 5 4 3 3 4 4 3 3 3 3 3 3 2 2 2 2 1 1 1 1 0 1 1 0 1 3 3 3 3 2 3 2 2 2
3 3 3 4 3 4 4 4 5 6 6 5 4 4 4 3 3 4 4 3 3 2 2 2 2 2 1 1 0 0 0 0 1 1 2 4 4 4 3 2 1 2 2
Wind_Direction
125 134 136 131 128 127 128 126 121 117 114 110 108 106 102 100 97 95 94 93 92 90 87 84 82 80 78 77 76 75 74 73 72 70 68 66 64 61 58 56 53 50 52
130 135 136 132 129 126 129 126 122 118 115 113 111 109 106 104 100 98 95 94 93 90 88 85 82 81 80 78 76 76 76 74 72 70 68 65 63 61 58 55 52 52 50
128 134 136 131 129 127 126 127 123 120 117 116 114 112 109 106 103 101 98 95 93 91 88 85 83 83 81 79 77 75 73 69 65 66 65 60 58 59 56 53 52 50 48
130 134 135 131 130 128 126 127 125 122 118 116 115 114 112 110 108 104 101 97 94 91 89 86 84 83 82 80 77 73 67 57 54 60 57 56 52 57 54 51 50 47 44
126 130 130 131 132 130 128 126 127 123 120 117 116 114 113 112 109 105 102 98 95 93 90 88 85 83 81 78 75 69 61 52 54 61 60 55 51 55 53 49 47 43 41
125 125 130 131 131 131 130 125 125 124 122 120 117 115 113 111 108 104 102 100 98 95 93 91 87 84 80 77 72 65 57 51 56 58 56 52 48 54 52 49 45 43 41
126 127 132 129 130 130 127 126 124 124 123 122 119 116 113 111 109 106 104 102 100 98 96 93 90 86 82 76 70 62 53 50 64 62 58 48 49 54 52 49 45 42 39
125 128 131 128 127 126 125 122 120 123 124 122 120 119 116 112 110 109 106 104 102 101 98 95 92 87 82 75 67 51 39 45 64 67 61 51 55 55 51 47 42 40 36
125 128 132 131 125 122 121 120 117 118 118 120 119 117 115 113 111 109 107 106 105 103 100 97 93 89 84 77 66 47 36 42 53 58 61 53 55 53 50 45 40 36 34
127 133 139 139 133 127 122 117 117 118 115 113 113 113 112 111 109 105 102 104 106 105 103 99 96 93 88 79 60 30 25 42 65 58 46 52 54 51 48 42 36 33 30
132 138 142 141 137 132 131 125 121 118 116 115 114 120 118 111 108 103 102 101 102 106 107 105 104 101 98 86 43 16 23 72 75 64 46 55 52 49 44 39 34 30 27
145 146 145 143 139 137 136 133 135 131 132 127 130 127 114 108 108 110 104 105 103 101 106 114 115 118 109 92 15 16 44 68 76 70 53 56 51 45 40 35 31 28 24
151 146 142 138 138 135 132 139 139 136 137 131 132 125 110 104 109 109 108 102 105 110 103 126 137 106 92 76 43 46 50 62 77 71 54 57 48 41 36 32 28 25 20
149 146 143 139 134 133 133 139 139 131 128 127 129 121 115 115 114 121 118 119 122 100 91 80 70 67 77 71 66 61 56 71 88 89 62 57 46 38 32 27 23 20 17
151 149 146 141 135 129 124 137 133 127 126 125 121 117 113 114 119 121 116 114 102 99 101 87 72 61 56 46 57 63 57 75 90 92 77 58 45 33 27 21 16 15 12
152 147 142 139 138 134 129 127 130 127 125 120 118 119 116 116 115 109 100 98 94 95 81 78 78 77 59 40 49 55 54 65 88 99 102 68 48 32 22 16 8 6 3
153 145 140 140 138 136 131 126 124 126 121 117 119 118 113 111 115 113 109 96 93 87 78 66 51 59 63 45 48 50 44 37 58 89 94 99 64 33 19 8 2 358 356
147 146 142 141 138 138 131 123 124 120 116 117 114 110 110 111 112 112 113 107 96 85 80 80 74 60 55 47 39 28 38 33 40 69 69 73 70 51 7 357 355 351 349
146 145 141 142 144 133 126 122 119 111 111 116 114 110 112 114 113 111 114 116 108 95 86 83 69 76 59 29 6 350 6 161 201 77 73 63 57 64 31 345 347 343 343
146 141 140 140 135 129 121 119 110 107 110 107 112 118 119 119 115 113 115 113 108 102 90 87 80 65 70 353 322 305 252 224 192 128 160 23 352 13 357 330 325 327 336
138 141 144 144 143 135 134 133 136 135 125 114 115 118 122 120 117 119 120 117 113 116 118 107 97 88 50 25 29 329 297 257 187 159 218 273 330 340 336 330 320 313 317
151 151 147 151 156 152 151 144 136 133 124 119 115 112 123 123 125 127 124 130 124 119 113 102 99 99 68 63 82 25 334 322 307 251 230 239 271 306 310 324 316 313 312
147 154 158 164 157 152 142 128 116 106 107 121 129 135 135 132 130 129 134 134 133 131 136 132 119 110 147 296 77 107 114 278 304 293 267 261 318 320 310 304 305 317 318
160 153 149 155 152 150 145 150 152 153 159 165 157 151 136 131 133 135 137 136 134 135 138 148 136 119 132 168 325 36 164 159 338 305 303 303 313 304 298 306 306 300 305
145 139 151 147 152 153 155 161 160 155 149 138 139 145 147 143 142 144 151 146 148 149 150 153 140 121 138 148 158 278 299 319 243 246 293 307 309 286 285 286 284 293 299
122 125 138 146 155 150 154 162 160 154 150 146 157 161 157 154 155 155 156 155 156 160 160 157 154 150 153 144 127 112 135 183 280 267 282 301 300 289 285 278 279 297 304